Location: Nairn
(57.5833°N, 3.8667°W)
Time: 02:00:24
(UTC+00:00)

KORONAS-FOTON - Pass Details

Date: 07 August 2020
Orbit: 507 x 531 km, 82.4° (Epoch: 27 September)

Event Time Altitude Azimuth Distance (km) Brightness Sun altitude
Rises 02:10:56 0° 344° (NNW) 2,629 8.2 -12.7°
Reaches altitude 10° 02:13:06 10° 340° (NNW) 1,738 7.1 -12.5°
Maximum altitude 02:16:48 53° 263° (W) 631 4.0 -12.3°
Enters shadow 02:19:24 18° 191° (S) 1,295 5.2 -12.1°
